• In Denmark
  • List of Countries
  • For 7 days
  • Water Temperature
  • Satellite Maps
  • Weather Map
  • Weather Widgets
  • user-avatar
    Login

    Hourly Weather Solden

    Today, 25 June, Monday

    Time Temperature Precipitation Wind Pressure Humidity
    00:00 +4°C° 0.4 mm 1 mps 583 mmHg 92%
    01:00 +5°C° 0 mm 1 mps 583 mmHg 93%
    02:00 +3°C° 0.3 mm 2 mps 583 mmHg 94%
    03:00 +3°C° 0.3 mm 2 mps 583 mmHg 94%
    04:00 +2°C° 0.3 mm 2 mps 583 mmHg 94%
    05:00 +3°C° 0.1 mm 2 mps 583 mmHg 90%
    06:00 +4°C° 0.1 mm 2 mps 584 mmHg 86%
    07:00 +5°C° 0 mm 2 mps 584 mmHg 83%
    08:00 +6°C° 0.2 mm 2 mps 585 mmHg 76%
    09:00 +7°C° 0.2 mm 2 mps 586 mmHg 70%
    10:00 +8°C° 0.2 mm 2 mps 586 mmHg 63%
    11:00 +9°C° 0.3 mm 2 mps 587 mmHg 59%
    12:00 +10°C° 0.3 mm 3 mps 587 mmHg 55%
    13:00 +11°C° 0.3 mm 3 mps 588 mmHg 51%
    14:00 +11°C° 0.1 mm 3 mps 588 mmHg 50%
    15:00 +11°C° 0.1 mm 3 mps 588 mmHg 50%
    16:00 +12°C° 0.1 mm 2 mps 588 mmHg 50%
    17:00 +10°C° 0.1 mm 2 mps 588 mmHg 57%
    18:00 +9°C° 0.1 mm 2 mps 587 mmHg 63%
    19:00 +8°C° 0.1 mm 2 mps 587 mmHg 70%
    20:00 +6°C° 0.1 mm 2 mps 586 mmHg 77%
    21:00 +5°C° 0.1 mm 2 mps 586 mmHg 84%
    22:00 +4°C° 0.1 mm 1 mps 586 mmHg 90%
    23:00 +4°C° 0 mm 1 mps 585 mmHg 91%

    Tomorrow, 26 June, Tuesday

    Time Temperature Precipitation Wind Pressure Humidity
    00:00 +3°C° 0 mm 1 mps 585 mmHg 91%
    01:00 +3°C° 0 mm 1 mps 585 mmHg 92%
    02:00 +2°C° 0 mm 1 mps 585 mmHg 92%
    03:00 +2°C° 0 mm 1 mps 584 mmHg 91%
    04:00 +1°C° 0 mm 1 mps 584 mmHg 91%
    05:00 +3°C° 0 mm 1 mps 585 mmHg 82%
    06:00 +5°C° 0 mm 1 mps 586 mmHg 73%
    07:00 +6°C° 0 mm 2 mps 586 mmHg 64%
    08:00 +8°C° 0 mm 2 mps 587 mmHg 55%
    09:00 +10°C° 0 mm 2 mps 588 mmHg 45%
    10:00 +13°C° 0 mm 2 mps 589 mmHg 36%
    11:00 +14°C° 0 mm 2 mps 590 mmHg 35%
    12:00 +15°C° 0 mm 2 mps 590 mmHg 35%
    13:00 +16°C° 0 mm 2 mps 590 mmHg 35%
    14:00 +16°C° 0 mm 3 mps 590 mmHg 37%
    15:00 +14°C° 0 mm 3 mps 589 mmHg 40%
    16:00 +14°C° 0 mm 3 mps 589 mmHg 43%
    17:00 +13°C° 0 mm 3 mps 589 mmHg 51%
    18:00 +13°C° 0 mm 2 mps 588 mmHg 60%
    19:00 +10°C° 0 mm 2 mps 588 mmHg 68%
    20:00 +8°C° 0 mm 2 mps 587 mmHg 75%
    21:00 +7°C° 0 mm 2 mps 586 mmHg 82%
    22:00 +5°C° 0 mm 2 mps 586 mmHg 89%
    23:00 +5°C° 0 mm 2 mps 586 mmHg 90%

    Day after tomorrow, 27 June, Wednesday

    Time Temperature Precipitation Wind Pressure Humidity
    00:00 +4°C° 0 mm 2 mps 585 mmHg 91%
    01:00 +4°C° 0 mm 2 mps 585 mmHg 91%
    02:00 +3°C° 0 mm 2 mps 585 mmHg 91%
    03:00 +3°C° 0 mm 2 mps 584 mmHg 91%
    04:00 +2°C° 0 mm 2 mps 584 mmHg 91%
    05:00 +4°C° 0 mm 2 mps 585 mmHg 83%
    06:00 +6°C° 0 mm 2 mps 585 mmHg 75%
    07:00 +7°C° 0 mm 2 mps 586 mmHg 67%
    08:00 +9°C° 0 mm 2 mps 587 mmHg 58%
    09:00 +12°C° 0 mm 2 mps 587 mmHg 49%
    10:00 +13°C° 0 mm 3 mps 588 mmHg 40%
    11:00 +13°C° 0 mm 3 mps 588 mmHg 39%
    12:00 +14°C° 0 mm 3 mps 588 mmHg 38%
    13:00 +16°C° 0 mm 3 mps 588 mmHg 37%
    14:00 +14°C° 0.1 mm 3 mps 588 mmHg 40%
    15:00 +14°C° 0.1 mm 4 mps 587 mmHg 42%
    16:00 +13°C° 0.1 mm 4 mps 587 mmHg 45%
    17:00 +12°C° 0.2 mm 3 mps 587 mmHg 51%
    18:00 +10°C° 0.2 mm 3 mps 586 mmHg 57%
    19:00 +9°C° 0.2 mm 3 mps 586 mmHg 64%
    20:00 +7°C° 0 mm 2 mps 585 mmHg 70%
    21:00 +5°C° 0 mm 2 mps 584 mmHg 77%
    22:00 +3°C° 0 mm 2 mps 584 mmHg 84%
    23:00 +3°C° 0 mm 2 mps 583 mmHg 85%

    28 June, Thursday

    Time Temperature Precipitation Wind Pressure Humidity
    00:00 +2°C° 0 mm 2 mps 583 mmHg 85%
    01:00 +1°C° 0 mm 2 mps 582 mmHg 86%
    02:00 +1°C° 0 mm 2 mps 582 mmHg 84%
    03:00 +1°C° 0 mm 2 mps 582 mmHg 82%
    04:00 -1°C° 0 mm 2 mps 581 mmHg 80%
    05:00 +2°C° 0 mm 2 mps 582 mmHg 73%
    06:00 +4°C° 0 mm 2 mps 583 mmHg 67%
    07:00 +5°C° 0 mm 3 mps 583 mmHg 60%
    08:00 +8°C° 0 mm 3 mps 584 mmHg 57%
    09:00 +9°C° 0 mm 3 mps 584 mmHg 55%
    10:00 +11°C° 0 mm 3 mps 585 mmHg 52%
    11:00 +11°C° 0.4 mm 3 mps 584 mmHg 57%
    12:00 +10°C° 0.4 mm 3 mps 584 mmHg 63%
    13:00 +10°C° 0.4 mm 3 mps 584 mmHg 68%
    14:00 +10°C° 0.6 mm 3 mps 584 mmHg 70%
    15:00 +9°C° 0.6 mm 3 mps 583 mmHg 73%
    16:00 +9°C° 0.6 mm 3 mps 583 mmHg 75%
    17:00 +8°C° 0.4 mm 2 mps 583 mmHg 77%
    18:00 +8°C° 0.4 mm 2 mps 583 mmHg 80%
    19:00 +7°C° 0.4 mm 2 mps 583 mmHg 83%
    20:00 +6°C° 0.1 mm 2 mps 582 mmHg 85%
    21:00 +6°C° 0.1 mm 2 mps 582 mmHg 87%
    22:00 +6°C° 0.1 mm 1 mps 582 mmHg 90%
    23:00 +5°C° 0.1 mm 1 mps 582 mmHg 90%

    29 June, Friday

    Time Temperature Precipitation Wind Pressure Humidity
    00:00 +5°C° 0.1 mm 1 mps 582 mmHg 90%
    01:00 +5°C° 0.1 mm 1 mps 582 mmHg 90%
    02:00 +5°C° 0.1 mm 1 mps 581 mmHg 90%
    03:00 +5°C° 0.1 mm 1 mps 581 mmHg 90%
    04:00 +5°C° 0.1 mm 1 mps 581 mmHg 90%
    05:00 +7°C° 0 mm 1 mps 582 mmHg 86%
    06:00 +8°C° 0 mm 1 mps 583 mmHg 81%
    07:00 +10°C° 0 mm 1 mps 584 mmHg 77%
    08:00 +12°C° 0 mm 1 mps 585 mmHg 70%
    09:00 +14°C° 0 mm 1 mps 585 mmHg 63%
    10:00 +16°C° 0 mm 1 mps 586 mmHg 57%
    11:00 +16°C° 0.2 mm 1 mps 586 mmHg 55%
    12:00 +18°C° 0.2 mm 1 mps 587 mmHg 54%
    13:00 +17°C° 0.2 mm 2 mps 587 mmHg 52%
    14:00 +17°C° 0.5 mm 2 mps 587 mmHg 54%
    15:00 +17°C° 0.5 mm 2 mps 586 mmHg 55%
    16:00 +17°C° 0.5 mm 2 mps 586 mmHg 57%
    17:00 +16°C° 0.5 mm 2 mps 586 mmHg 63%
    18:00 +15°C° 0.5 mm 1 mps 586 mmHg 69%
    19:00 +14°C° 0.5 mm 1 mps 585 mmHg 75%
    20:00 +12°C° 0.2 mm 1 mps 585 mmHg 81%
    21:00 +10°C° 0.2 mm 1 mps 584 mmHg 86%
    22:00 +8°C° 0.2 mm 1 mps 584 mmHg 92%
    23:00 +8°C° 0 mm 1 mps 584 mmHg 92%

    30 June, Saturday

    Time Temperature Precipitation Wind Pressure Humidity
    00:00 +8°C° 0 mm 1 mps 584 mmHg 92%
    01:00 +8°C° 0 mm 1 mps 584 mmHg 92%
    02:00 +7°C° 0 mm 1 mps 584 mmHg 92%
    03:00 +7°C° 0 mm 1 mps 583 mmHg 91%
    04:00 +7°C° 0 mm 1 mps 583 mmHg 91%
    05:00 +9°C° 0 mm 1 mps 585 mmHg 84%
    06:00 +11°C° 0 mm 1 mps 586 mmHg 77%
    07:00 +12°C° 0 mm 0 mps 587 mmHg 71%
    08:00 +14°C° 0 mm 0 mps 588 mmHg 63%
    09:00 +18°C° 0 mm 1 mps 589 mmHg 55%
    10:00 +20°C° 0 mm 1 mps 590 mmHg 47%
    11:00 +21°C° 0 mm 1 mps 590 mmHg 45%
    12:00 +22°C° 0 mm 1 mps 590 mmHg 43%
    13:00 +22°C° 0 mm 1 mps 591 mmHg 41%
    14:00 +21°C° 0.4 mm 2 mps 590 mmHg 44%
    15:00 +21°C° 0.4 mm 2 mps 590 mmHg 47%
    16:00 +20°C° 0.4 mm 2 mps 590 mmHg 49%
    17:00 +20°C° 0.5 mm 1 mps 590 mmHg 58%
    18:00 +19°C° 0.5 mm 1 mps 589 mmHg 66%
    19:00 +16°C° 0.5 mm 1 mps 589 mmHg 74%
    20:00 +15°C° 0.6 mm 1 mps 588 mmHg 79%
    21:00 +13°C° 0.6 mm 1 mps 588 mmHg 84%
    22:00 +11°C° 0.6 mm 1 mps 588 mmHg 89%
    23:00 +11°C° 0.3 mm 1 mps 588 mmHg 88%
    Show more